User: anonymous   Login
Location: Bottom School (historical)
(37.9078°N, 89.3593°W)
Time: 12:53:09
(UTC+00:00)
Language:

DX 1 - Orbit

View from above orbital plane
View from above orbital plane
View from above satellite
View from above satellite

Ground track
Ground track

The orbit data is extracted from the following two-line orbital elements,

1 40071U 14037C   23092.14345822  .00002511  00000-0  31824-3 0  9992
2 40071  98.3703 339.6829 0009372 106.4460 253.7791 14.82702250472105
Epoch (UTC): 02 April 2023 03:26:34
Eccentricity: 0.0009372
inclination: 98.3703°
perigee height: 614 km
apogee height: 627 km
right ascension of ascending node: 339.6829°
argument of perigee: 106.4460°
revolutions per day: 14.82702250
mean anomaly at epoch: 253.7791°
orbit number at epoch: 47210

The dashed part of the orbit path shows where the satellite is in the earth's shadow,  

DLR